Estación de Pencahue
Ultimos registro cada 15 minutos 23
| N° | Estación | Fecha / Hora | Temperatura | Humedad | Lluvia | Velocidad | Dirección | Radiación | Presion |
| 23 | Pencahue | 07-05-2026 05:30 | 5,9 | 95 | 0 | 0 | 360 | 0 | 1025 |
| 22 | Pencahue | 07-05-2026 05:15 | 6,1 | 94 | 0 | 0 | 360 | 0 | 1024,7 |
| 21 | Pencahue | 07-05-2026 05:00 | 6,5 | 94 | 0 | 0 | 360 | 0 | 1024,5 |
| 20 | Pencahue | 07-05-2026 04:45 | 6,7 | 94 | 0 | 0 | 360 | 0 | 1024,6 |
| 19 | Pencahue | 07-05-2026 04:30 | 7,1 | 94 | 0 | 0 | 354 | 0 | 1024,4 |
| 18 | Pencahue | 07-05-2026 04:15 | 7,2 | 95 | 0 | 0 | 354 | 0 | 1024,2 |
| 17 | Pencahue | 07-05-2026 04:00 | 7,1 | 94 | 0 | 0 | 250 | 0 | 1024 |
| 16 | Pencahue | 07-05-2026 03:45 | 7 | 95 | 0 | 0 | 250 | 0 | 1024 |
| 15 | Pencahue | 07-05-2026 03:30 | 6,9 | 94 | 0 | 0 | 250 | 0 | 1023,9 |
| 14 | Pencahue | 07-05-2026 03:15 | 7,1 | 93 | 0 | 0 | 250 | 0 | 1023,8 |
| 13 | Pencahue | 07-05-2026 03:00 | 7,2 | 93 | 0 | 0 | 250 | 0 | 1023,9 |
| 12 | Pencahue | 07-05-2026 02:45 | 7,3 | 94 | 0 | 0 | 250 | 0 | 1023,8 |
| 11 | Pencahue | 07-05-2026 02:30 | 7,4 | 93 | 0 | 0 | 250 | 0 | 1024 |
| 10 | Pencahue | 07-05-2026 02:15 | 7,5 | 92 | 0 | 0 | 250 | 0 | 1024 |
| 9 | Pencahue | 07-05-2026 02:00 | 7,7 | 92 | 0 | 0 | 250 | 0 | 1023,9 |
| 8 | Pencahue | 07-05-2026 01:45 | 8,4 | 91 | 0 | 0 | 250 | 0 | 1023,7 |
| 7 | Pencahue | 07-05-2026 01:30 | 8,9 | 90 | 0 | 0 | 250 | 0 | 1023,2 |
| 6 | Pencahue | 07-05-2026 01:15 | 9,5 | 91 | 0 | 0 | 250 | 0 | 1023,3 |
| 5 | Pencahue | 07-05-2026 01:00 | 9,8 | 92 | 0 | 0 | 250 | 0 | 1023,2 |
| 4 | Pencahue | 07-05-2026 00:45 | 9,8 | 93 | 0 | 0 | 250 | 0 | 1023,2 |
| 3 | Pencahue | 07-05-2026 00:30 | 9,6 | 94 | 0 | 0 | 250 | 0 | 1023,1 |
| 2 | Pencahue | 07-05-2026 00:15 | 9,4 | 94 | 0 | 0 | 285 | 0 | 1023 |
| 1 | Pencahue | 07-05-2026 00:00 | 9,3 | 94 | 0 | 0 | 285 | 0 | 1022,9 |